Location: Sears
(37.7625°N, 100.1060°W)
Time: 06:47:12
(UTC+00:00)

Hubble Space Telescope - Pass Details

Date: 30 July 2021
Orbit: 535 x 539 km, 28.5° (Epoch: 24 September)

Event Time Altitude Azimuth Distance (km) Brightness Sun altitude
Rises 03:45:31 0° 253° (WSW) 2,668 4.7 -19.5°
Reaches altitude 10° 03:48:46 10° 226° (SW) 1,775 3.4 -19.9°
Enters shadow 03:49:48 13° 212° (SSW) 1,619 3.1 -20.1°
